Weather History for Wrangell, AK

Change the Weather History Date:

Wednesday, April 16, 2014

  Actual Average Record
Temperature  
Mean Temperature 46 °F -  
Max Temperature 55 °F 49 °F 65 °F (1990)
Min Temperature 37 °F 34 °F 27 °F (1972)
Degree Days  
Heating Degree Days 19    
Moisture  
Dew Point 35 °F    
Average Humidity 70    
Maximum Humidity 87    
Minimum Humidity 38    
Precipitation  
Precipitation 0.11 in - - ()
Sea Level Pressure  
Sea Level Pressure 29.76 in    
Wind  
Wind Speed 7 mph (ESE)    
Max Wind Speed 17 mph    
Max Gust Speed 23 mph    
Visibility 10 miles    
Events      
Averages and records for this station are not official NWS values.
T = Trace of Precipitation, MM = Missing Value Source: NWS Daily Summary

Daily Weather History Graph

Daily Weather History Graph

Search for Another Location

Airport:

Trip Planner

Search our weather history database for the weather conditions in past years. The results will help you decide how hot, cold, wet, or windy it might be!

Date:

Astronomy

Apr. 16, 2014 Rise Set
Actual Time 5:39 AM AKDT 8:00 PM AKDT
Civil Twilight 4:58 AM AKDT 8:41 PM AKDT
Nautical Twilight 4:05 AM AKDT 9:34 PM AKDT
Astronomical Twilight 3:00 AM AKDT 10:41 PM AKDT
Moon 10:10 PM AKDT (4/16) 6:19 AM AKDT (4/16)
Length of Visible Light 15h 42m
Length of Day
14h 20m
Full, 97% of the Moon is Illuminated
Apr 16
Full
Apr 21
Last Quarter
Apr 28
New
May 6
First Quarter
May 14
Full

Hourly Weather History & Observations

Time (AKDT) Temp. Windchill Dew Point Humidity Pressure Visibility Wind Dir Wind Speed Gust Speed Precip Events Conditions
12:16 AM 42.8 °F 38.6 °F 37.4 °F 81% 29.97 in 10.0 mi ESE 6.9 mph - N/A   Scattered Clouds
12:36 AM 42.8 °F 40.1 °F 35.6 °F 76% 29.97 in 10.0 mi South 4.6 mph - N/A   Mostly Cloudy
12:56 AM 42.8 °F 40.1 °F 35.6 °F 76% 29.97 in 10.0 mi SE 4.6 mph - N/A   Scattered Clouds
1:16 AM 41.0 °F 38.0 °F 35.6 °F 81% 29.97 in 10.0 mi SSE 4.6 mph - N/A   Mostly Cloudy
1:36 AM 41.0 °F 37.1 °F 35.6 °F 81% 29.96 in 10.0 mi East 5.8 mph - N/A   Mostly Cloudy
1:56 AM 42.8 °F 38.0 °F 37.4 °F 81% 29.96 in 10.0 mi East 8.1 mph - N/A   Scattered Clouds
2:16 AM 41.0 °F 35.8 °F 35.6 °F 81% 29.96 in 10.0 mi ESE 8.1 mph - N/A   Partly Cloudy
2:36 AM 41.0 °F 37.1 °F 35.6 °F 81% 29.96 in 10.0 mi SSE 5.8 mph - N/A   Mostly Cloudy
2:56 AM 39.2 °F 35.9 °F 35.6 °F 87% 29.95 in 10.0 mi SSE 4.6 mph - N/A   Overcast
3:16 AM 41.0 °F 36.4 °F 35.6 °F 81% 29.95 in 10.0 mi SE 6.9 mph - N/A   Overcast
3:36 AM 39.2 °F 33.6 °F 35.6 °F 87% 29.94 in 10.0 mi SSE 8.1 mph - N/A   Overcast
3:56 AM 39.2 °F 33.6 °F 33.8 °F 81% 29.93 in 10.0 mi SE 8.1 mph - N/A   Scattered Clouds
4:16 AM 39.2 °F 33.0 °F 33.8 °F 81% 29.93 in 10.0 mi SSE 9.2 mph - N/A   Clear
4:36 AM 37.4 °F 32.8 °F 33.8 °F 87% 29.93 in 10.0 mi SSE 5.8 mph - N/A   Clear
4:56 AM 37.4 °F 32.8 °F 33.8 °F 87% 29.92 in 10.0 mi SSE 5.8 mph - N/A   Mostly Cloudy
5:16 AM 39.2 °F 33.6 °F 33.8 °F 81% 29.92 in 10.0 mi SSE 8.1 mph - N/A   Overcast
5:36 AM 39.2 °F 34.2 °F 33.8 °F 81% 29.91 in 10.0 mi SE 6.9 mph - N/A   Mostly Cloudy
5:56 AM 39.2 °F 35.0 °F 33.8 °F 81% 29.91 in 10.0 mi SE 5.8 mph - N/A   Overcast
6:16 AM 39.2 °F 33.0 °F 35.6 °F 87% 29.90 in 10.0 mi ESE 9.2 mph - N/A   Overcast
6:36 AM 39.2 °F 33.0 °F 35.6 °F 87% 29.90 in 10.0 mi ESE 9.2 mph - N/A   Overcast
6:56 AM 39.2 °F 33.6 °F 35.6 °F 87% 29.89 in 10.0 mi ESE 8.1 mph - N/A   Overcast
7:16 AM 39.2 °F 34.2 °F 35.6 °F 87% 29.89 in 10.0 mi ESE 6.9 mph - N/A   Overcast
7:36 AM 41.0 °F 37.1 °F 35.6 °F 81% 29.88 in 10.0 mi SE 5.8 mph - N/A   Overcast
7:56 AM 41.0 °F 35.8 °F 35.6 °F 81% 29.88 in 10.0 mi SE 8.1 mph - N/A   Mostly Cloudy
8:16 AM 41.0 °F 37.1 °F 35.6 °F 81% 29.87 in 10.0 mi East 5.8 mph - N/A   Mostly Cloudy
8:36 AM 41.0 °F 35.8 °F 35.6 °F 81% 29.86 in 10.0 mi ESE 8.1 mph - N/A   Mostly Cloudy
8:56 AM 41.0 °F 36.4 °F 35.6 °F 81% 29.86 in 10.0 mi SE 6.9 mph - N/A   Overcast
9:16 AM 42.8 °F 38.6 °F 37.4 °F 81% 29.85 in 10.0 mi ESE 6.9 mph - N/A   Overcast
9:36 AM 42.8 °F 38.0 °F 37.4 °F 81% 29.84 in 10.0 mi ESE 8.1 mph - N/A   Overcast
9:56 AM 42.8 °F 38.6 °F 37.4 °F 81% 29.84 in 10.0 mi SE 6.9 mph - N/A   Overcast
10:16 AM 44.6 °F 42.2 °F 37.4 °F 76% 29.84 in 10.0 mi ESE 4.6 mph - N/A   Overcast
10:36 AM 44.6 °F 42.2 °F 37.4 °F 76% 29.82 in 10.0 mi ESE 4.6 mph - N/A   Overcast
10:56 AM 44.6 °F - 37.4 °F 76% 29.82 in 10.0 mi Calm Calm - N/A   Mostly Cloudy
11:16 AM 44.6 °F - 39.2 °F 81% 29.81 in 10.0 mi Calm Calm - N/A   Mostly Cloudy
11:36 AM 46.4 °F 43.5 °F 37.4 °F 71% 29.80 in 10.0 mi NNW 5.8 mph - N/A   Mostly Cloudy
11:56 AM 46.4 °F 44.3 °F 37.4 °F 71% 29.79 in 10.0 mi NNW 4.6 mph - N/A   Mostly Cloudy
12:16 PM 48.2 °F - 37.4 °F 66% 29.78 in 10.0 mi North 3.5 mph - N/A   Mostly Cloudy
12:36 PM 48.2 °F - 37.4 °F 66% 29.77 in 10.0 mi NNE 4.6 mph - N/A   Mostly Cloudy
12:56 PM 48.2 °F - 37.4 °F 66% 29.75 in 10.0 mi Calm Calm - N/A   Scattered Clouds
1:16 PM 51.8 °F - 37.4 °F 58% 29.74 in 10.0 mi NNE 3.5 mph - N/A   Scattered Clouds
1:36 PM 51.8 °F - 35.6 °F 54% 29.73 in 10.0 mi Calm Calm - N/A   Scattered Clouds
1:56 PM 51.8 °F - 35.6 °F 54% 29.72 in 10.0 mi Calm Calm - N/A   Scattered Clouds
2:16 PM 53.6 °F - 35.6 °F 51% 29.71 in 10.0 mi North 4.6 mph - N/A   Scattered Clouds
2:36 PM 53.6 °F - 35.6 °F 51% 29.69 in 10.0 mi East 8.1 mph - N/A   Scattered Clouds
2:56 PM 53.6 °F - 33.8 °F 47% 29.68 in 10.0 mi East 8.1 mph - N/A   Scattered Clouds
3:16 PM 55.4 °F - 33.8 °F 44% 29.67 in 10.0 mi East 9.2 mph - N/A   Scattered Clouds
3:36 PM 53.6 °F - 32.0 °F 44% 29.66 in 10.0 mi ESE 10.4 mph - N/A   Scattered Clouds
3:56 PM 53.6 °F - 32.0 °F 44% 29.65 in 10.0 mi East 10.4 mph - N/A   Scattered Clouds
4:16 PM 53.6 °F - 32.0 °F 44% 29.65 in 10.0 mi East 6.9 mph - N/A   Scattered Clouds
4:36 PM 51.8 °F - 33.8 °F 50% 29.64 in 10.0 mi ESE 5.8 mph - N/A   Scattered Clouds
4:56 PM 53.6 °F - 28.4 °F 38% 29.63 in 10.0 mi SE 5.8 mph - N/A   Scattered Clouds
5:16 PM 53.6 °F - 33.8 °F 47% 29.62 in 10.0 mi ESE 9.2 mph - N/A   Mostly Cloudy
5:36 PM 53.6 °F - 30.2 °F 41% 29.61 in 10.0 mi SSE 8.1 mph - N/A   Mostly Cloudy
5:56 PM 53.6 °F - 30.2 °F 41% 29.60 in 10.0 mi SE 10.4 mph - N/A   Mostly Cloudy
6:16 PM 51.8 °F - 30.2 °F 44% 29.60 in 10.0 mi SE 12.7 mph - N/A   Clear
6:36 PM 51.8 °F - 32.0 °F 47% 29.59 in 10.0 mi SE 17.3 mph 21.9 mph N/A   Clear
6:56 PM 50.0 °F - 32.0 °F 50% 29.58 in 10.0 mi SE 13.8 mph - N/A   Clear
7:16 PM 50.0 °F - 32.0 °F 50% 29.57 in 10.0 mi SE 16.1 mph 21.9 mph N/A   Overcast
7:36 PM 48.2 °F - 32.0 °F 54% 29.56 in 10.0 mi SE 15.0 mph 23.0 mph N/A   Overcast
7:56 PM 48.2 °F - 33.8 °F 58% 29.56 in 10.0 mi SE 16.1 mph 19.6 mph N/A   Overcast
8:16 PM 46.4 °F 40.1 °F 33.8 °F 62% 29.56 in 10.0 mi SE 15.0 mph - N/A   Mostly Cloudy
8:36 PM 46.4 °F 41.5 °F 35.6 °F 66% 29.56 in 10.0 mi SE 10.4 mph - N/A   Mostly Cloudy
8:56 PM 44.6 °F 39.2 °F 37.4 °F 76% 29.55 in 10.0 mi ESE 10.4 mph - 0.01 in   Mostly Cloudy
9:16 PM 44.6 °F 39.7 °F 37.4 °F 76% 29.55 in 10.0 mi ESE 9.2 mph - 0.01 in   Overcast
9:36 PM 44.6 °F 39.2 °F 37.4 °F 76% 29.54 in 10.0 mi East 10.4 mph - 0.03 in   Overcast
9:56 PM 44.6 °F 39.2 °F 37.4 °F 76% 29.53 in 10.0 mi East 10.4 mph - 0.04 in   Overcast
10:16 PM 44.6 °F 39.2 °F 37.4 °F 76% 29.52 in 10.0 mi East 10.4 mph - 0.02 in   Overcast
10:36 PM 44.6 °F 38.8 °F 37.4 °F 76% 29.52 in 10.0 mi East 11.5 mph - 0.03 in   Overcast
10:56 PM 44.6 °F 38.8 °F 37.4 °F 76% 29.51 in 10.0 mi East 11.5 mph - 0.03 in   Overcast
11:16 PM 44.6 °F 38.8 °F 37.4 °F 76% 29.50 in 10.0 mi East 11.5 mph - 0.01 in   Overcast
11:36 PM 44.6 °F 39.2 °F 37.4 °F 76% 29.50 in 10.0 mi East 10.4 mph - 0.02 in   Overcast
11:56 PM 44.6 °F 39.7 °F 37.4 °F 76% 29.49 in 10.0 mi East 9.2 mph - 0.03 in   Overcast